FO-29
1 24278U 96046B 13227.22621633 .00000028 00000-0 64967-4 0 1794
2 24278 098.5501 277.8774 0350515 011.3484 060.9834 13.53003813839293
SO-33
1 25509U 98061B 13227.09040875 .00000178 00000-0 22405-4 0 5611
2 25509 031.4331 094.1060 0351138 313.5802 210.4577 14.29106973773321
RS-22
1 27939U 03042A 13227.41857483 .00000485 00000-0 99786-4 0 6777
2 27939 097.8001 052.1783 0013541 004.3889 355.7457 14.64535508527965
VO-52
1 28650U 05017B 13227.11804828 .00001036 00000-0 12953-3 0 4999
2 28650 097.5676 242.6985 0027434 087.9871 312.9127 14.84044522447823
HO-68
1 36122U 09072B 13227.25929620 -.00000044 00000-0 00000 0 0 8168
2 36122 100.3013 282.8059 0007356 216.4569 143.6057 13.16306237176183
UO-11
1 14781U 84021B 13227.16003596 .00000419 00000-0 60895-4 0 2574
2 14781 097.8978 287.6141 0010359 098.7707 261.4679 14.80974163582661
AO-16
1 20439U 90005D 13227.47617510 .00000087 00000-0 48131-4 0 8173
2 20439 098.4734 166.1350 0010419 349.8004 118.4876 14.32196181230725
LO-19
1 20442U 90005G 13226.86267838 .00000063 00000-0 39230-4 0 7525
2 20442 098.4429 167.1346 0011197 340.8889 052.4364 14.32405752230830
AO-27
1 22825U 93061C 13226.92353206 .00000051 00000-0 36931-4 0 4551
2 22825 098.6214 170.3375 0009581 114.4527 288.3461 14.29581706 37021
IO-26
1 22826U 93061D 13227.42176303 .00000054 00000-0 38001-4 0 2112
2 22826 098.6157 171.1055 0010167 107.1597 040.6336 14.29867962 37223
GO-32
1 25397U 98043D 13227.46705163 .00000023 00000-0 28576-4 0 1378
2 25397 098.4212 192.6646 0002437 113.3021 033.4207 14.23353737784371
NO-44
1 26931U 01043C 13227.16271422 .00000088 00000-0 66104-4 0 3956
2 26931 067.0516 107.4775 0007792 272.0103 259.4499 14.29948390619859
SO-50
1 27607U 02058C 13226.78670997 .00000496 00000-0 97267-4 0 1417
2 27607 064.5564 085.7316 0038510 143.3148 339.0483 14.73026371572340
CO-55
1 27844U 03031E 13227.05194123 .00000173 00000-0 99233-4 0 7171
2 27844 098.7020 235.2706 0010872 082.9134 310.5968 14.21253570525096
CO-57
1 27848U 03031J 13226.44460948 .00000165 00000-0 96415-4 0 6616
2 27848 098.7107 234.2151 0010860 089.1395 018.6245 14.20974700524934
AO-51
1 28375U 04025K 13227.42114343 .00000070 00000-0 33892-4 0 6299
2 28375 098.2066 180.5211 0083326 195.9986 311.1100 14.41147747479866
CP3
1 31129U 07012N 13226.96290153 .00000415 00000-0 10328-3 0 5280
2 31129 097.9021 216.2985 0098815 243.9969 149.2791 14.53764064335534
CO-65
1 32785U 08021C 13227.16761135 .00000901 00000-0 11419-3 0 7112
2 32785 097.7463 283.0086 0015854 113.5752 280.3554 14.84033951286626
PRISM
1 33493U 09002B 13227.39563217 .00001477 00000-0 17406-3 0 827
2 33493 098.2241 026.3144 0018079 004.9713 355.1701 14.86303919246715
SOHLA-1
1 33496U 09002E 13226.87896119 .00000262 00000-0 51606-4 0 1218
2 33496 098.1408 342.7627 0007808 131.0623 021.7512 14.70343819244498
SO-67
1 35870U 09049F 13227.39334203 .00003444 00000-0 12988-3 0 3335
2 35870 097.1884 254.0387 0003708 101.6054 355.1442 15.27691230217297
TISAT-1
1 36799U 10035E 13227.47530688 .00001106 00000-0 14091-3 0 3539
2 36799 098.0328 312.5213 0013263 231.8390 128.1641 14.83534299167368
STUDSAT
1 36801U 10035G 13225.79853138 .00004546 00000-0 48838-3 0 6668
2 36801 098.0437 314.5292 0011127 212.7646 293.7794 14.89030965167287
ALMASAT-1
1 38078U 12006B 13227.03893236 .00022326 00000-0 56113-3 0 5253
2 38078 069.4688 064.1601 0682209 071.4490 295.9511 14.27534716 77634
XATCOBEO
1 38082U 12006F 13226.90858593 .00051712 34245-5 96162-3 0 4082
2 38082 069.4668 032.5320 0542254 054.0348 310.9833 14.63555476 78494
SOMP
1 39135U 13015F 13227.47200588 .00002305 00000-0 19453-3 0 2482
2 39135 064.8767 022.3633 0006775 201.7515 195.5419 15.00628815 17723
CUBEBUG-1
1 39153U 13018D 13227.36548132 .00000547 00000-0 85823-4 0 3148
2 39153 098.0704 303.1071 0016806 253.0715 106.8650 14.76545261 16419
ESTCUBE-1
1 39161U 13021C 13227.21841944 .00000476 00000-0 89501-4 0 2790
2 39161 098.1262 305.1602 0009049 291.1551 068.8708 14.69057921 14661
NOAA-10
1 16969U 86073A 13227.40841641 .00000066 00000-0 44080-4 0 4625
2 16969 098.5430 253.9490 0013288 075.4125 337.3195 14.27657269400396
NOAA-11
1 19531U 88089A 13227.42178014 .00000039 00000-0 42273-4 0 4713
2 19531 098.7087 309.0516 0012371 093.8958 318.5259 14.15024495284507
NOAA-12
1 21263U 91032A 13227.50867777 .00000047 00000-0 38297-4 0 9388
2 21263 098.6948 252.4172 0014543 051.5397 108.1792 14.25580819157004
MET-3/5
1 21655U 91056A 13227.42858846 -.00000092 00000-0 -27164-3 0 7602
2 21655 082.5548 212.4336 0012737 347.3572 012.7229 13.17050342 57736
MET-2/21
1 22782U 93055A 13227.48276405 .00000036 00000-0 18634-4 0 8178
2 22782 082.5467 055.8692 0023090 045.9197 345.6323 13.83710058 7840
OKEAN-4
1 23317U 94066A 13227.15920139 .00000671 00000-0 76347-4 0 2961
2 23317 082.5418 354.5894 0021467 035.5381 317.2640 14.84582022 17680
NOAA-14
1 23455U 94089A 13227.36963975 .00000059 00000-0 54041-4 0 4179
2 23455 098.8012 310.9070 0009685 183.3197 218.4475 14.13916063960739
NOAA-15
1 25338U 98030A 13227.87888878 .00000121 00000-0 51491-4 0 8399
2 25338 098.7291 217.7690 0009943 320.4362 039.6580 14.25254452793358
RESURS
1 25394U 98043A 13227.45806975 -.00000044 00000-0 -13383-5 0 4455
2 25394 098.3680 200.4733 0002609 089.1237 070.1312 14.24333952784790
FENGYUN1
1 25730U 99025A 13226.49145635 .00000396 00000-0 24638-3 0 9391
2 25730 098.8814 185.2983 0023980 244.2477 210.2318 14.10598671734266
OKEAN-0
1 25860U 99039A 13227.43522346 .00000338 00000-0 58083-4 0 202
2 25860 097.9963 189.1116 0001008 080.7205 075.9098 14.74665919757081
NOAA-16
1 26536U 00055A 13227.25277748 .00000129 00000-0 94020-4 0 3242
2 26536 099.0375 280.5883 0009764 333.2955 068.0266 14.12905843664918
NOAA-17
1 27453U 02032A 13227.50511925 .00000066 00000-0 45805-4 0 2352
2 27453 098.3129 238.4419 0011290 358.1574 155.1256 14.24610652579166
NOAA-18
1 28654U 05018A 13227.48151075 .00000260 00000-0 16774-3 0 7225
2 28654 099.1058 196.5686 0015036 046.0938 100.5041 14.11849441424429
NOAA-19
1 33591U 09005A 13227.44138796 .00000010 00000-0 29903-4 0 9046
2 33591 098.9063 169.0483 0012949 261.8607 236.1934 14.11538320232850
HUBBLE
1 20580U 90037B 13227.12843634 .00001256 00000-0 76933-4 0 3046
2 20580 028.4692 246.3765 0002949 260.5646 161.9577 15.03834389 78571
ISS
1 25544U 98067A 13227.87792191 .00006348 00000-0 11787-3 0 3991
2 25544 051.6496 172.5706 0003723 315.6984 104.5353 15.50304145843961
CO-58
1 28895U 05043F 13226.63171195 .00000480 00000-0 10633-3 0 5478
2 28895 097.8635 079.0849 0016283 255.9722 103.9670 14.61192108415471
FALCON
1 30776U 07006E 13227.35834436 .00004258 00000-0 25109-3 0 6746
2 30776 035.4295 198.9084 0000968 167.7507 316.6552 15.11136821354377
MAST
1 31126U 07012K 13226.49430075 .00000333 00000-0 83997-4 0 8278
2 31126 097.8852 219.1030 0092234 230.1276 277.1400 14.54642719335792
CAPE1
1 31130U 07012P 13226.83386320 .00000397 00000-0 99543-4 0 8302
2 31130 097.9026 215.8018 0099233 245.3685 113.7151 14.53581565335291
COMPASS
1 32787U 08021E 13227.13804030 .00001749 00000-0 20714-3 0 7022
2 32787 097.7474 284.1657 0016182 110.3473 249.9483 14.85736762286719
AAUSAT2
1 32788U 08021F 13226.11804004 .00001742 00000-0 20397-3 0 6851
2 32788 097.7487 283.8494 0015771 112.6236 247.6650 14.86215055286601
DO-64
1 32789U 08021G 13227.25089369 .00004276 00000-0 45913-3 0 7179
2 32789 097.7648 289.0848 0015261 102.1894 298.8217 14.89014194286915
CO-66
1 32791U 08021J 13226.41904644 .00001466 00000-0 17837-3 0 6802
2 32791 097.7477 282.7513 0016691 113.7180 009.4494 14.84827783286511
